Arad, Romania

1:29 PM EEST on August 28, 2016 (GMT +0300)
Arad

Weather History for LRAR - September, 2013

Change the Weather History Date:

Thursday, September 26, 2013

  Actual Average Record
Temperature  
Mean Temperature 64 °F -  
Max Temperature 77 °F 63 °F 89 °F (1999)
Min Temperature 52 °F 43 °F 42 °F (2004)
Growing Degree Days 14 (Base 50)    
Moisture  
Dew Point 56 °F    
Average Humidity 73    
Maximum Humidity 100    
Minimum Humidity 34    
Precipitation  
Precipitation 0.08 in - - ()
Sea Level Pressure  
Sea Level Pressure 29.87 in    
Wind  
Wind Speed 6 mph ()    
Max Wind Speed 17 mph    
Max Gust Speed -    
Visibility 6.9 miles    
Events Rain    
Averages and records for this station are not official NWS values.
T = Trace of Precipitation, MM = Missing Value Source: Averaged Metar Reports

Daily Weather History Graph

Daily Weather History Graph

Search for Another Location

Airport or City:

Trip Planner

Search our weather history database for the weather conditions in past years. The results will help you decide how hot, cold, wet, or windy it might be!

Date:

Astronomy

Sep. 26, 2013 Rise Set
Actual Time 7:26 AM EEST 7:24 PM EEST
Civil Twilight 6:57 AM EEST 7:54 PM EEST
Nautical Twilight 6:22 AM EEST 8:29 PM EEST
Astronomical Twilight 5:46 AM EEST 9:05 PM EEST
Moon 11:49 PM EEST (9/26) 2:22 PM EEST (9/26)
Length of Visible Light 12h 57m
Length of Day
11h 57m
Waning Gibbous, 57% of the Moon is Illuminated
Sep 26
Waning Gibbous
Sep 27
Last Quarter
Oct 5
New
Oct 12
First Quarter
Oct 19
Full

Hourly Weather History & Observations

Time (EEST) Temp. Dew Point Humidity Pressure Visibility Wind Dir Wind Speed Gust Speed Precip Events Conditions
12:00 AM 58 °F 51 °F 70% 29.95 in 12 mi NE 2.2 mph - -   Mostly Cloudy
12:00 AM 59.0 °F 51.8 °F 77% 29.95 in 6.2 mi ESE 4.6 mph - N/A   Partly Cloudy
1:00 AM 56 °F 51 °F 76% 29.95 in 12 mi East 2.2 mph - -   Partly Cloudy
1:00 AM 57.2 °F 51.8 °F 82% 29.92 in 6.2 mi SE 6.9 mph - N/A   Partly Cloudy
2:00 AM 55 °F 51 °F 82% 29.94 in 12 mi ESE 4.5 mph - -  
2:00 AM 55.4 °F 53.6 °F 94% 29.92 in 6.2 mi SSE 6.9 mph - N/A   Unknown
3:00 AM 54 °F 51 °F 86% 29.94 in 12 mi ESE 2.2 mph - -  
3:00 AM 55.4 °F 55.4 °F 100% 29.92 in 6.2 mi SSE 9.2 mph - N/A   Unknown
4:00 AM 55 °F 53 °F 88% 29.94 in 12 mi ESE 2.2 mph - -   Partly Cloudy
4:00 AM 57.2 °F 57.2 °F 100% 29.92 in 6.2 mi SSE 4.6 mph - N/A   Mostly Cloudy
5:00 AM 56 °F 54 °F 89% 29.93 in 6 mi SE 2.2 mph - -   Mostly Cloudy
5:00 AM 59.0 °F 57.2 °F 94% 29.92 in 6.2 mi SSE 4.6 mph - N/A   Mostly Cloudy
6:00 AM 59.0 °F 57.2 °F 94% 29.89 in - South 12.7 mph - N/A   Clear
6:30 AM 57.2 °F 57.2 °F 100% 29.89 in - South 10.4 mph - N/A   Clear
7:00 AM 57 °F 53 °F 81% 29.91 in 6 mi South 4.5 mph - -   Scattered Clouds
7:00 AM 57.2 °F 57.2 °F 100% 29.89 in - South 10.4 mph - N/A   Clear
7:30 AM 57.2 °F 57.2 °F 100% 29.89 in - South 9.2 mph - N/A   Clear
8:00 AM 55 °F 53 °F 90% 29.91 in 6 mi South 2.2 mph - -   Partly Cloudy
8:00 AM 57.2 °F 57.2 °F 100% 29.89 in - SSW 6.9 mph - N/A   Clear
8:30 AM 57.2 °F 57.2 °F 100% 29.89 in - SSW 9.2 mph - N/A   Clear
9:00 AM 58 °F 55 °F 85% 29.91 in 6 mi South 4.5 mph - -   Scattered Clouds
9:00 AM 59.0 °F 59.0 °F 100% 29.89 in - SSW 9.2 mph - N/A   Clear
9:30 AM 60.8 °F 59.0 °F 94% 29.89 in - SSW 9.2 mph - N/A   Clear
10:00 AM 62 °F 56 °F 74% 29.91 in 6 mi South 6.7 mph - -   Clear
10:00 AM 64.4 °F 59.0 °F 83% 29.92 in - SSW 6.9 mph - N/A   Clear
10:30 AM 66.2 °F 59.0 °F 78% 29.92 in - SW 9.2 mph - N/A   Clear
11:00 AM 67 °F 56 °F 58% 29.91 in 6 mi SSW 6.7 mph - -   Clear
11:00 AM 68.0 °F 59.0 °F 73% 29.89 in - SW 9.2 mph - N/A   Clear
11:30 AM 69.8 °F 59.0 °F 68% 29.89 in - WSW 11.5 mph - N/A   Clear
12:00 PM 71 °F 56 °F 48% 29.90 in 6 mi SSW 6.7 mph - -   Clear
12:00 PM 71.6 °F 59.0 °F 64% 29.89 in - WSW 11.5 mph - N/A   Clear
12:30 PM 73.4 °F 57.2 °F 57% 29.89 in - WSW 16.1 mph - N/A   Clear
1:00 PM 73 °F 55 °F 43% 29.88 in 6 mi SW 6.7 mph - -   Scattered Clouds
1:00 PM 73.4 °F 57.2 °F 57% 29.86 in - WSW 13.8 mph - N/A   Clear
1:30 PM 75.2 °F 57.2 °F 53% 29.86 in - WSW 16.1 mph - N/A   Clear
2:00 PM 75 °F 54 °F 37% 29.87 in 6 mi SSW 8.9 mph - -   Scattered Clouds
2:00 PM 75.2 °F 57.2 °F 53% 29.86 in - WSW 13.8 mph - N/A   Clear
2:30 PM 75.2 °F 57.2 °F 53% 29.86 in - West 16.1 mph - N/A   Clear
3:00 PM 76 °F 54 °F 37% 29.85 in 6 mi SW 6.7 mph - -   Scattered Clouds
3:00 PM 77.0 °F 57.2 °F 50% 29.83 in - West 13.8 mph - N/A   Clear
3:30 PM 77.0 °F 57.2 °F 50% 29.83 in - WSW 13.8 mph - N/A   Clear
4:00 PM 77 °F 54 °F 34% 29.82 in 6 mi SW 4.5 mph - -   Scattered Clouds
4:00 PM 77.0 °F 57.2 °F 50% 29.83 in - WSW 13.8 mph - N/A   Clear
4:30 PM 75.2 °F 57.2 °F 53% 29.80 in - WSW 11.5 mph - N/A   Clear
5:00 PM 76 °F 55 °F 38% 29.81 in 6 mi SW 4.5 mph - -   Scattered Clouds
5:00 PM 75.2 °F 57.2 °F 53% 29.80 in - West 13.8 mph - N/A   Clear
5:30 PM 75.2 °F 59.0 °F 57% 29.80 in - West 11.5 mph - N/A   Clear
6:00 PM 77 °F 54 °F 35% 29.80 in 6 mi SW 4.5 mph - -   Mostly Cloudy
6:00 PM 75.2 °F 59.0 °F 57% 29.80 in - WSW 11.5 mph - N/A   Clear
6:30 PM 73.4 °F 57.2 °F 57% 29.77 in - WSW 11.5 mph - N/A   Clear
7:00 PM 75 °F 54 °F 38% 29.78 in 6 mi WSW 4.5 mph - -   Partly Cloudy
7:00 PM 73.4 °F 57.2 °F 57% 29.77 in 6.2 mi WSW 9.2 mph - N/A   Partly Cloudy
7:30 PM 71.6 °F 59.0 °F 64% 29.80 in 6.2 mi West 9.2 mph - N/A   Scattered Clouds
8:00 PM 73 °F 55 °F 43% 29.80 in 6 mi WSW 4.5 mph - -   Partly Cloudy
8:00 PM 59.0 °F 59.0 °F 100% 29.83 in 6.2 mi NW 17.3 mph - N/A Rain Light Rain Showers
8:30 PM 59.0 °F 59.0 °F 100% 29.83 in 6.2 mi North 6.9 mph - N/A Rain Light Rain Showers
9:00 PM 60 °F 58 °F 90% 29.86 in 6 mi North 4.5 mph - - Rain Light Rain Showers
9:00 PM 59.0 °F 59.0 °F 100% 29.86 in 6.2 mi North 4.6 mph - N/A   Scattered Clouds
9:30 PM 59.0 °F 59.0 °F 100% 29.86 in 6.2 mi NW 1.2 mph - N/A   Partly Cloudy
10:00 PM 59 °F 58 °F 96% 29.88 in 6 mi Calm Calm - -   Overcast
10:00 PM 59.0 °F 59.0 °F 100% 29.89 in 6.2 mi WSW 1.2 mph - N/A Rain Light Rain Showers
11:00 PM 60 °F 58 °F 90% 29.89 in 6 mi West 2.2 mph - -   Overcast
11:00 PM - - N/A% 29.89 in 6.2 mi West 6.9 mph - N/A   Scattered Clouds